User: anonymous   Login
Location: Unspecified
(0.0000°N, 0.0000°E)
Time: 23:46:50
(UTC+02:00)
Language:

Cosmos 1943 Rocket - Orbit

View from above orbital plane
View from above orbital plane
View from above satellite
View from above satellite

Ground track
Ground track

The orbit data is extracted from the following two-line orbital elements,

1 19120U 88039B   15115.21458497  .00000200  00000-0  11856-3 0  9990
2 19120 071.0150 181.3327 0023688 306.5046 053.3897 14.19101573395166
Epoch (UTC): 25 April 2015 05:09:00
Eccentricity: 0.0023688
inclination: 71.0150°
perigee height: 811 km
apogee height: 845 km
right ascension of ascending node: 181.3327°
argument of perigee: 306.5046°
revolutions per day: 14.19101573
mean anomaly at epoch: 53.3897°
orbit number at epoch: 39516

The dashed part of the orbit path shows where the satellite is in the earth's shadow,  

DLR